| time (UTC) | temp F | wind direction | speed MPH | gust MPH | rain 1hr in | rain 24hr in | rain mn in | humidity % | barometer mb |
| 20260904101519 | 54 | 136 | 1.0 | 5.0 | 0.00 | 0.00 | 0.00 | 68 | 1010.8 |
| 20260904100003 | 54 | 176 | 1.0 | 7.0 | 0.00 | 0.00 | 0.00 | 66 | 1010.6 |
| 20260904094508 | 53 | 155 | 2.0 | 6.0 | 0.00 | 0.00 | 0.00 | 63 | 1010.4 |
| 20260904093012 | 53 | 147 | 2.0 | 5.0 | 0.00 | 0.00 | 0.00 | 63 | 1010.4 |
| 20260904091517 | 54 | 215 | 0.0 | 2.0 | 0.00 | 0.00 | 0.00 | 64 | 1010.4 |
| 20260904090016 | 55 | 98 | 0.0 | 1.0 | 0.00 | 0.00 | 0.00 | 61 | 1010.3 |
| 20260904084504 | 56 | 92 | 0.0 | 0.0 | 0.00 | 0.00 | 0.00 | 58 | 1010.3 |
| 20260904083008 | 57 | 113 | 0.0 | 5.0 | 0.00 | 0.00 | 0.00 | 54 | 1010.3 |
| 20260904081506 | 56 | 191 | 0.0 | 5.0 | 0.00 | 0.00 | 0.00 | 56 | 1010.2 |
| 20260904080021 | 56 | 178 | 1.0 | 5.0 | 0.00 | 0.00 | 0.00 | 56 | 1010.4 |
| 20260904074523 | 57 | 273 | 0.0 | 0.0 | 0.00 | 0.00 | 0.00 | 55 | 1010.6 |
| 20260904073003 | 57 | 190 | 0.0 | 2.0 | 0.00 | 0.00 | 0.00 | 55 | 1010.4 |
| 20260904071513 | 56 | 124 | 0.0 | 3.0 | 0.00 | 0.00 | 0.00 | 56 | 1010.3 |
| 20260904070015 | 56 | 117 | 0.0 | 3.0 | 0.00 | 0.00 | 0.00 | 57 | 1010.3 |
| 20260904064508 | 56 | 34 | 0.0 | 1.0 | 0.00 | 0.00 | 0.00 | 57 | 1010.3 |
| 20260904063030 | 56 | 136 | 0.0 | 0.0 | 0.00 | 0.00 | 0.00 | 57 | 1010.1 |
| 20260904061508 | 57 | 128 | 0.0 | 0.0 | 0.00 | 0.00 | 0.00 | 56 | 1009.9 |
| 20260904060013 | 58 | 128 | 0.0 | 0.0 | 0.00 | 0.00 | 0.00 | 55 | 1009.8 |
| 20260904054523 | 58 | 128 | 0.0 | 0.0 | 0.00 | 0.00 | 0.00 | 54 | 1009.8 |
| 20260904053014 | 59 | 117 | 0.0 | 2.0 | 0.00 | 0.00 | 0.00 | 51 | 1009.8 |
| 20260904051511 | 59 | 104 | 0.0 | 5.0 | 0.00 | 0.00 | 0.00 | 50 | 1009.8 |
| 20260904050018 | 59 | 136 | 2.0 | 7.0 | 0.00 | 0.00 | 0.00 | 49 | 1009.9 |
| 20260904044555 | 60 | 182 | 2.0 | 7.0 | 0.00 | 0.00 | 0.00 | 48 | 1009.9 |
| 20260904043024 | 61 | 152 | 1.0 | 7.0 | 0.00 | 0.00 | 0.00 | 47 | 1009.8 |
| 20260904041526 | 61 | 136 | 1.0 | 4.0 | 0.00 | 0.00 | 0.00 | 48 | 1009.7 |
| 20260904040003 | 61 | 142 | 0.0 | 3.0 | 0.00 | 0.00 | 0.00 | 48 | 1009.3 |
| 20260904034502 | 61 | 143 | 0.0 | 3.0 | 0.00 | 0.00 | 0.00 | 48 | 1009.4 |
| 20260904033002 | 61 | 128 | 0.0 | 3.0 | 0.00 | 0.00 | 0.00 | 48 | 1009.2 |
| 20260904031504 | 62 | 159 | 0.0 | 4.0 | 0.00 | 0.00 | 0.00 | 49 | 1009.3 |
| 20260904030008 | 62 | 189 | 1.0 | 3.0 | 0.00 | 0.00 | 0.00 | 48 | 1009.3 |
| 20260904024505 | 63 | 115 | 1.0 | 3.0 | 0.00 | 0.00 | 0.00 | 47 | 1009.0 |
| 20260904023003 | 64 | 134 | 0.0 | 4.0 | 0.00 | 0.00 | 0.00 | 46 | 1008.8 |
| 20260904021509 | 64 | 153 | 0.0 | 2.0 | 0.00 | 0.00 | 0.00 | 44 | 1008.9 |
| 20260904020003 | 65 | 169 | 0.0 | 0.0 | 0.00 | 0.00 | 0.00 | 44 | 1009.0 |
| 20260904014508 | 65 | 169 | 0.0 | 0.0 | 0.00 | 0.00 | 0.00 | 42 | 1009.1 |
| 20260904013010 | 65 | 169 | 0.0 | 0.0 | 0.00 | 0.00 | 0.00 | 42 | 1009.2 |
| 20260904011503 | 66 | 176 | 0.0 | 2.0 | 0.00 | 0.00 | 0.00 | 41 | 1009.3 |
| 20260904010004 | 66 | 200 | 0.0 | 3.0 | 0.00 | 0.00 | 0.00 | 40 | 1009.3 |
| 20260904004502 | 66 | 200 | 0.0 | 2.0 | 0.00 | 0.00 | 0.00 | 40 | 1009.2 |
| 20260904003001 | 66 | 200 | 0.0 | 0.0 | 0.00 | 0.00 | 0.00 | 40 | 1009.3 |
| 20260904001518 | 66 | 200 | 0.0 | 0.0 | 0.00 | 0.00 | 0.00 | 41 | 1009.5 |
| 20260904000003 | 67 | 200 | 0.0 | 2.0 | 0.00 | 0.00 | 0.00 | 39 | 1009.6 |
| 20260903234507 | 67 | 127 | 0.0 | 5.0 | 0.00 | 0.00 | 0.00 | 38 | 1009.6 |
| 20260903233009 | 67 | 169 | 0.0 | 5.0 | 0.00 | 0.00 | 0.00 | 39 | 1009.6 |
| 20260903231506 | 67 | 167 | 0.0 | 6.0 | 0.00 | 0.00 | 0.00 | 39 | 1009.7 |
| 20260903230003 | 67 | 115 | 2.0 | 6.0 | 0.00 | 0.00 | 0.00 | 39 | 1009.9 |
| 20260903224503 | 67 | 256 | 0.0 | 4.0 | 0.00 | 0.00 | 0.00 | 40 | 1009.8 |
| 20260903223013 | 67 | 132 | 3.0 | 10.0 | 0.00 | 0.00 | 0.00 | 38 | 1010.1 |
| 20260903221516 | 67 | 169 | 3.0 | 9.0 | 0.00 | 0.00 | 0.00 | 38 | 1010.3 |
| 20260903220012 | 67 | 211 | 3.0 | 7.0 | 0.00 | 0.00 | 0.00 | 39 | 1010.3 |
| 20260903214511 | 67 | 177 | 0.0 | 3.0 | 0.00 | 0.00 | 0.00 | 40 | 1010.5 |
| 20260903213005 | 67 | 194 | 0.0 | 6.0 | 0.00 | 0.00 | 0.00 | 39 | 1010.7 |
| 20260903211513 | 67 | 286 | 0.0 | 5.0 | 0.00 | 0.00 | 0.00 | 41 | 1010.8 |
| 20260903210020 | 66 | 158 | 1.0 | 7.0 | 0.00 | 0.00 | 0.00 | 42 | 1010.9 |
| 20260903204523 | 67 | 188 | 2.0 | 5.0 | 0.00 | 0.00 | 0.00 | 42 | 1011.0 |
| 20260903203017 | 67 | 223 | 4.0 | 8.0 | 0.00 | 0.00 | 0.00 | 40 | 1010.8 |
| 20260903201513 | 67 | 175 | 1.0 | 10.0 | 0.00 | 0.00 | 0.00 | 42 | 1011.0 |
| 20260903200007 | 67 | 194 | 2.0 | 5.0 | 0.00 | 0.00 | 0.00 | 42 | 1011.1 |
| 20260903194524 | 67 | 195 | 0.0 | 7.0 | 0.00 | 0.00 | 0.00 | 44 | 1011.2 |
| 20260903193028 | 66 | 144 | 1.0 | 5.0 | 0.00 | 0.00 | 0.00 | 45 | 1011.4 |
| 20260903191536 | 66 | 219 | 2.0 | 5.0 | 0.00 | 0.00 | 0.00 | 47 | 1011.4 |
| 20260903190003 | 65 | 123 | 2.0 | 6.0 | 0.00 | 0.00 | 0.00 | 51 | 1011.6 |
| 20260903184502 | 65 | 192 | 2.0 | 6.0 | 0.00 | 0.00 | 0.00 | 50 | 1011.7 |
| 20260903183007 | 66 | 178 | 2.0 | 7.0 | 0.00 | 0.00 | 0.00 | 50 | 1011.8 |
| 20260903181508 | 65 | 151 | 3.0 | 9.0 | 0.00 | 0.00 | 0.00 | 49 | 1011.8 |
| 20260903180002 | 65 | 186 | 4.0 | 11.0 | 0.00 | 0.00 | 0.00 | 50 | 1011.7 |
| 20260903174503 | 64 | 238 | 0.0 | 10.0 | 0.00 | 0.00 | 0.00 | 51 | 1011.6 |
| 20260903173003 | 64 | 253 | 0.0 | 7.0 | 0.00 | 0.00 | 0.00 | 52 | 1011.7 |
| 20260903171503 | 63 | 236 | 0.0 | 8.0 | 0.00 | 0.00 | 0.00 | 53 | 1011.7 |
| 20260903170003 | 61 | 156 | 3.0 | 12.0 | 0.00 | 0.00 | 0.00 | 55 | 1011.7 |
| 20260903164503 | 60 | 160 | 3.0 | 11.0 | 0.00 | 0.00 | 0.00 | 60 | 1011.6 |
| 20260903163004 | 60 | 148 | 4.0 | 10.0 | 0.00 | 0.00 | 0.00 | 61 | 1011.5 |
| 20260903161506 | 59 | 196 | 5.0 | 12.0 | 0.00 | 0.00 | 0.00 | 60 | 1011.7 |
| 20260903160005 | 59 | 190 | 6.0 | 13.0 | 0.00 | 0.00 | 0.00 | 60 | 1011.4 |
| 20260903154503 | 58 | 210 | 4.0 | 10.0 | 0.00 | 0.00 | 0.00 | 63 | 1011.3 |
| 20260903153003 | 58 | 189 | 5.0 | 12.0 | 0.00 | 0.00 | 0.00 | 66 | 1011.3 |
| 20260903151509 | 57 | 146 | 5.0 | 12.0 | 0.00 | 0.00 | 0.00 | 70 | 1011.3 |
| 20260903150014 | 56 | 126 | 5.0 | 12.0 | 0.00 | 0.00 | 0.00 | 72 | 1011.3 |
| 20260903144515 | 55 | 152 | 6.0 | 15.0 | 0.00 | 0.00 | 0.00 | 77 | 1011.4 |
| 20260903143011 | 54 | 169 | 5.0 | 11.0 | 0.00 | 0.00 | 0.00 | 80 | 1011.3 |
| 20260903141506 | 53 | 216 | 4.0 | 11.0 | 0.00 | 0.00 | 0.00 | 84 | 1011.2 |
| 20260903140010 | 52 | 232 | 4.0 | 12.0 | 0.00 | 0.00 | 0.00 | 85 | 1011.2 |
| 20260903134510 | 52 | 172 | 5.0 | 10.0 | 0.00 | 0.00 | 0.00 | 85 | 1011.2 |
| 20260903133015 | 52 | 194 | 4.0 | 11.0 | 0.00 | 0.00 | 0.00 | 85 | 1011.0 |
| 20260903131518 | 52 | 194 | 5.0 | 14.0 | 0.00 | 0.00 | 0.00 | 85 | 1011.0 |
| 20260903130012 | 53 | 209 | 5.0 | 13.0 | 0.00 | 0.00 | 0.00 | 86 | 1010.9 |
| 20260903124506 | 53 | 135 | 4.0 | 11.0 | 0.00 | 0.00 | 0.00 | 87 | 1010.7 |
| 20260903123008 | 53 | 111 | 5.0 | 11.0 | 0.00 | 0.00 | 0.00 | 87 | 1010.8 |
| 20260903121526 | 53 | 152 | 4.0 | 10.0 | 0.00 | 0.00 | 0.00 | 86 | 1010.8 |
| 20260903120038 | 54 | 193 | 4.0 | 11.0 | 0.00 | 0.00 | 0.00 | 86 | 1010.8 |
| 20260903114521 | 54 | 165 | 3.0 | 9.0 | 0.00 | 0.00 | 0.00 | 85 | 1010.4 |
| 20260903113012 | 55 | 162 | 3.0 | 8.0 | 0.00 | 0.00 | 0.00 | 84 | 1010.5 |
| 20260903111517 | 55 | 165 | 3.0 | 9.0 | 0.00 | 0.00 | 0.00 | 84 | 1010.3 |
| 20260903110011 | 56 | 184 | 6.0 | 11.0 | 0.00 | 0.00 | 0.00 | 85 | 1010.0 |
| 20260903104529 | 56 | 157 | 4.0 | 10.0 | 0.00 | 0.00 | 0.00 | 85 | 1010.0 |
| 20260903103031 | 56 | 163 | 3.0 | 9.0 | 0.00 | 0.00 | 0.00 | 86 | 1010.1 |